When you browse on this site, cookies collect data to enhance your experience and personalize the content and advertising you see.
Visit our Privacy Policy to learn more. By continuing to use the site, you agree to this use of cookies and data.
  • In United Kingdom
  • List of Countries
  • For 7 days
  • Water Temperature
  • Weather Map
  • Weather Widgets
  • user-avatar
    Login

    Hourly Weather Dabuleni

    Today, 23 September, Monday

    Time Temperature Precipitation Wind Pressure Humidity
    00:00 +15°C° 0 mm 1 mps 758 mmHg 31%
    01:00 +15°C° 0 mm 1 mps 758 mmHg 32%
    02:00 +16°C° 0 mm 1 mps 758 mmHg 33%
    03:00 +15°C° 0 mm 1 mps 758 mmHg 33%
    04:00 +15°C° 0 mm 1 mps 757 mmHg 34%
    05:00 +15°C° 0 mm 1 mps 757 mmHg 35%
    06:00 +16°C° 0 mm 1 mps 757 mmHg 33%
    07:00 +15°C° 0 mm 0 mps 757 mmHg 32%
    08:00 +16°C° 0 mm 0 mps 757 mmHg 30%
    09:00 +17°C° 0 mm 0 mps 756 mmHg 30%
    10:00 +17°C° 0 mm 0 mps 756 mmHg 29%
    11:00 +18°C° 0 mm 0 mps 756 mmHg 29%
    12:00 +21°C° 0 mm 1 mps 756 mmHg 28%
    13:00 +22°C° 0 mm 1 mps 755 mmHg 28%
    14:00 +24°C° 0 mm 2 mps 755 mmHg 28%
    15:00 +24°C° 0 mm 1 mps 755 mmHg 29%
    16:00 +24°C° 0 mm 1 mps 754 mmHg 30%
    17:00 +24°C° 0 mm 1 mps 754 mmHg 31%
    18:00 +23°C° 0 mm 1 mps 754 mmHg 35%
    19:00 +21°C° 0 mm 2 mps 755 mmHg 38%
    20:00 +20°C° 0 mm 2 mps 755 mmHg 42%
    21:00 +20°C° 0 mm 2 mps 755 mmHg 49%
    22:00 +19°C° 0 mm 2 mps 755 mmHg 56%
    23:00 +18°C° 0 mm 2 mps 755 mmHg 63%

    Tomorrow, 24 September, Tuesday

    Time Temperature Precipitation Wind Pressure Humidity
    00:00 +18°C° 0 mm 2 mps 755 mmHg 64%
    01:00 +19°C° 0 mm 1 mps 755 mmHg 65%
    02:00 +19°C° 0 mm 1 mps 755 mmHg 66%
    03:00 +18°C° 0 mm 1 mps 754 mmHg 67%
    04:00 +18°C° 0 mm 1 mps 754 mmHg 67%
    05:00 +16°C° 0 mm 1 mps 754 mmHg 67%
    06:00 +18°C° 0 mm 1 mps 754 mmHg 62%
    07:00 +18°C° 0 mm 2 mps 754 mmHg 56%
    08:00 +19°C° 0 mm 2 mps 754 mmHg 51%
    09:00 +20°C° 0 mm 3 mps 754 mmHg 48%
    10:00 +21°C° 0 mm 3 mps 754 mmHg 45%
    11:00 +22°C° 0 mm 4 mps 754 mmHg 42%
    12:00 +22°C° 0 mm 4 mps 754 mmHg 43%
    13:00 +22°C° 0 mm 4 mps 754 mmHg 44%
    14:00 +22°C° 0 mm 4 mps 754 mmHg 46%
    15:00 +22°C° 0 mm 4 mps 754 mmHg 49%
    16:00 +21°C° 0 mm 4 mps 754 mmHg 52%
    17:00 +20°C° 0 mm 3 mps 754 mmHg 55%
    18:00 +20°C° 0 mm 3 mps 754 mmHg 58%
    19:00 +19°C° 0 mm 3 mps 755 mmHg 62%
    20:00 +18°C° 0 mm 3 mps 755 mmHg 65%
    21:00 +18°C° 0 mm 3 mps 755 mmHg 69%
    22:00 +17°C° 0 mm 3 mps 755 mmHg 72%
    23:00 +17°C° 0 mm 2 mps 755 mmHg 75%

    Day after tomorrow, 25 September, Wednesday

    Time Temperature Precipitation Wind Pressure Humidity
    00:00 +16°C° 0 mm 2 mps 755 mmHg 79%
    01:00 +15°C° 0 mm 2 mps 755 mmHg 84%
    02:00 +14°C° 0 mm 2 mps 755 mmHg 88%
    03:00 +14°C° 0 mm 2 mps 755 mmHg 87%
    04:00 +15°C° 0 mm 1 mps 755 mmHg 87%
    05:00 +15°C° 0 mm 1 mps 755 mmHg 86%
    06:00 +15°C° 0 mm 1 mps 755 mmHg 83%
    07:00 +16°C° 0 mm 1 mps 755 mmHg 79%
    08:00 +18°C° 0 mm 1 mps 755 mmHg 75%
    09:00 +19°C° 0 mm 2 mps 755 mmHg 66%
    10:00 +21°C° 0 mm 2 mps 755 mmHg 57%
    11:00 +24°C° 0 mm 2 mps 755 mmHg 49%
    12:00 +25°C° 0 mm 2 mps 755 mmHg 45%
    13:00 +26°C° 0 mm 2 mps 754 mmHg 41%
    14:00 +27°C° 0 mm 2 mps 754 mmHg 38%
    15:00 +27°C° 0 mm 2 mps 754 mmHg 39%
    16:00 +26°C° 0 mm 2 mps 754 mmHg 41%
    17:00 +26°C° 0 mm 2 mps 753 mmHg 42%
    18:00 +24°C° 0 mm 2 mps 754 mmHg 47%
    19:00 +22°C° 0 mm 3 mps 754 mmHg 52%
    20:00 +21°C° 0 mm 3 mps 754 mmHg 57%
    21:00 +20°C° 0 mm 2 mps 754 mmHg 62%
    22:00 +19°C° 0 mm 2 mps 754 mmHg 67%
    23:00 +18°C° 0 mm 2 mps 754 mmHg 72%

    26 September, Thursday

    Time Temperature Precipitation Wind Pressure Humidity
    00:00 +18°C° 0.2 mm 2 mps 754 mmHg 74%
    01:00 +18°C° 0.2 mm 2 mps 754 mmHg 76%
    02:00 +17°C° 0.2 mm 2 mps 754 mmHg 79%
    03:00 +16°C° 0.2 mm 1 mps 754 mmHg 82%
    04:00 +16°C° 0.2 mm 1 mps 754 mmHg 85%
    05:00 +15°C° 0.2 mm 1 mps 754 mmHg 88%
    06:00 +16°C° 0 mm 1 mps 755 mmHg 85%
    07:00 +18°C° 0 mm 1 mps 755 mmHg 81%
    08:00 +19°C° 0 mm 1 mps 755 mmHg 77%
    09:00 +20°C° 0 mm 1 mps 755 mmHg 70%
    10:00 +22°C° 0 mm 1 mps 755 mmHg 63%
    11:00 +24°C° 0 mm 1 mps 755 mmHg 56%
    12:00 +25°C° 0 mm 2 mps 755 mmHg 51%
    13:00 +26°C° 0 mm 2 mps 754 mmHg 47%
    14:00 +28°C° 0 mm 2 mps 754 mmHg 42%
    15:00 +26°C° 0.1 mm 3 mps 754 mmHg 48%
    16:00 +23°C° 0.1 mm 4 mps 754 mmHg 54%
    17:00 +22°C° 0.1 mm 5 mps 754 mmHg 60%
    18:00 +21°C° 0.2 mm 5 mps 755 mmHg 66%
    19:00 +20°C° 0.2 mm 4 mps 755 mmHg 71%
    20:00 +19°C° 0.2 mm 4 mps 755 mmHg 77%
    21:00 +17°C° 0.1 mm 5 mps 756 mmHg 75%
    22:00 +17°C° 0.1 mm 6 mps 756 mmHg 74%
    23:00 +16°C° 0.1 mm 7 mps 756 mmHg 72%

    27 September, Friday

    Time Temperature Precipitation Wind Pressure Humidity
    00:00 +16°C° 0 mm 7 mps 756 mmHg 73%
    01:00 +16°C° 0 mm 7 mps 756 mmHg 74%
    02:00 +15°C° 0 mm 7 mps 756 mmHg 74%
    03:00 +15°C° 0 mm 7 mps 757 mmHg 74%
    04:00 +15°C° 0 mm 7 mps 757 mmHg 74%
    05:00 +15°C° 0 mm 7 mps 757 mmHg 74%
    06:00 +16°C° 0 mm 7 mps 757 mmHg 72%
    07:00 +16°C° 0 mm 7 mps 757 mmHg 69%
    08:00 +16°C° 0 mm 7 mps 757 mmHg 67%
    09:00 +18°C° 0 mm 7 mps 757 mmHg 59%
    10:00 +21°C° 0 mm 6 mps 758 mmHg 51%
    11:00 +23°C° 0 mm 6 mps 758 mmHg 43%
    12:00 +24°C° 0 mm 6 mps 758 mmHg 39%
    13:00 +26°C° 0 mm 5 mps 757 mmHg 36%
    14:00 +27°C° 0 mm 5 mps 757 mmHg 32%
    15:00 +27°C° 0 mm 5 mps 757 mmHg 34%
    16:00 +26°C° 0 mm 5 mps 757 mmHg 35%
    17:00 +26°C° 0 mm 5 mps 757 mmHg 36%
    18:00 +23°C° 0 mm 4 mps 758 mmHg 42%
    19:00 +21°C° 0 mm 4 mps 759 mmHg 48%
    20:00 +19°C° 0 mm 3 mps 759 mmHg 54%
    21:00 +18°C° 0 mm 3 mps 760 mmHg 59%
    22:00 +17°C° 0 mm 2 mps 760 mmHg 63%
    23:00 +16°C° 0 mm 2 mps 760 mmHg 68%

    28 September, Saturday

    Time Temperature Precipitation Wind Pressure Humidity
    00:00 +16°C° 0 mm 2 mps 760 mmHg 70%
    01:00 +15°C° 0 mm 2 mps 760 mmHg 73%
    02:00 +15°C° 0 mm 1 mps 760 mmHg 76%
    03:00 +14°C° 0 mm 1 mps 760 mmHg 78%
    04:00 +14°C° 0 mm 1 mps 760 mmHg 80%
    05:00 +14°C° 0 mm 1 mps 760 mmHg 83%
    06:00 +15°C° 0 mm 1 mps 760 mmHg 77%
    07:00 +16°C° 0 mm 1 mps 760 mmHg 72%
    08:00 +18°C° 0 mm 1 mps 760 mmHg 66%
    09:00 +20°C° 0 mm 1 mps 760 mmHg 59%
    10:00 +22°C° 0 mm 1 mps 760 mmHg 51%
    11:00 +24°C° 0 mm 1 mps 760 mmHg 43%
    12:00 +25°C° 0 mm 1 mps 760 mmHg 39%
    13:00 +26°C° 0 mm 1 mps 759 mmHg 34%
    14:00 +28°C° 0 mm 1 mps 759 mmHg 30%
    15:00 +28°C° 0 mm 1 mps 758 mmHg 29%
    16:00 +28°C° 0 mm 1 mps 758 mmHg 29%
    17:00 +27°C° 0 mm 1 mps 758 mmHg 28%
    18:00 +25°C° 0 mm 1 mps 758 mmHg 33%
    19:00 +23°C° 0 mm 2 mps 758 mmHg 38%
    20:00 +20°C° 0 mm 2 mps 758 mmHg 44%
    21:00 +19°C° 0 mm 2 mps 759 mmHg 48%
    22:00 +19°C° 0 mm 2 mps 759 mmHg 52%
    23:00 +18°C° 0 mm 2 mps 759 mmHg 56%
    Show more